Hourly Data Report for December 04, 2020

L'ASSOMPTION
QUEBEC
Current Station Operator: ECCC - MSC

45°48'34.000" N
73°26'05.000" W
21.00 m
7014160
71524
WEW

Download Data

Hourly Data (December 2020)
Hourly Data Report for December 4, 2020
TIME
LST
Temp Definition
°C
Dew Point Definition
°C
Rel Hum Definition
%
Precip. Amount Definition
mm

Wind Dir Definition
10's deg

Wind Spd Definition
km/h
Visibility Definition
km
Stn Press Definition
kPa
Hmdx Definition


Wind Chill Definition


Weather Definition


00:00 3.2 0.2 81 0.0 22 5   101.07     LegendNANA
01:00 3.7 -0.5 74 0.0 21 11   101.01     LegendNANA
02:00 4.1 0.3 76 0.0 18 9   100.98     LegendNANA
03:00 4.2 0.3 76 0.0 20 14   100.98     LegendNANA
04:00 3.0 1.0 87 0.0 21 15   100.98     LegendNANA
05:00 2.7 0.7 87 0.0 19 14   100.94     LegendNANA
06:00 2.6 0.7 87 0.2 19 15   100.94     LegendNANA
07:00 2.3 0.9 90 0.2 18 15   100.95     LegendNANA
08:00 2.6 0.9 89 0.0 19 15   100.96     LegendNANA
09:00 2.7 1.2 89 0.2 19 16   100.96     LegendNANA
10:00 3.1 1.1 86 0.0 19 12   100.97     LegendNANA
11:00 2.8 1.5 91 0.2 20 17   100.94     LegendNANA
12:00 3.0 1.1 87 0.0 20 11   100.92     LegendNANA
13:00 3.3 1.3 87 0.0 22 7   100.90     LegendNANA
14:00 2.9 2.0 94 0.0 22 8   100.90     LegendNANA
15:00 3.1 1.7 90 0.2 18 7   100.91     LegendNANA
16:00 3.1 1.7 91 0.0 16 8   100.90     LegendNANA
17:00 3.1 2.0 93 0.2 17 8   100.89     LegendNANA
18:00 2.9 1.9 93 0.5 16 10   100.90     LegendNANA
19:00 2.8 1.8 93 0.9 16 8   100.89     LegendNANA
20:00 2.5 1.8 95 1.3 25 2   100.89     LegendNANA
21:00 2.0 1.5 97 0.7 30 7   100.93     LegendNANA
22:00 1.7 1.2 96 0.0 29 4   100.93     LegendNANA
23:00 1.6 1.2 97 0.0 24 6   101.00     LegendNANA

Notes on Data Quality.

Legend

  • E = Estimated
  • M = Missing
  • NA = Not Available*
  • [empty] = Indicates an unobserved value
Date modified: